User: anonymous   Login
Location: Oshawa
(43.9000°N, 78.8670°W)
Time: 17:55:59
(UTC-04:00)
Language:

Cosmos 1408 Rocket - Orbit

View from above orbital plane
View from above orbital plane
View from above satellite
View from above satellite

Ground track
Ground track

The orbit data is extracted from the following two-line orbital elements,

1 13553U 82092B   15188.50065755  .00000282  00000-0  31020-4 0  9996
2 13553 082.5681 176.1236 0020233 230.4216 246.7930 14.83918672771637
Epoch (UTC): 07 July 2015 12:00:56
Eccentricity: 0.0020233
inclination: 82.5681°
perigee height: 603 km
apogee height: 631 km
right ascension of ascending node: 176.1236°
argument of perigee: 230.4216°
revolutions per day: 14.83918672
mean anomaly at epoch: 246.7930°
orbit number at epoch: 77163

The dashed part of the orbit path shows where the satellite is in the earth's shadow,  

DLR